Change the Weather History Date:

Tuesday, June 25, 2013

  Actual Average Record
Temperature  
Mean Temperature 81 °F 63 °F  
Max Temperature 92 °F 74 °F 92 °F (1916)
Min Temperature 70 °F 52 °F 38 °F (1949)
Degree Days  
Heating Degree Days 0 3  
Month to date heating degree days 71 144  
Since 1 June heating degree days 71 144  
Since 1 July heating degree days 14876 13653  
Cooling Degree Days 16 1  
Month to date cooling degree days 89 12  
Year to date cooling degree days 102 13  
Since 1 June cooling degree days 89 12  
Growing Degree Days 30 (Base 50)    
Moisture  
Dew Point 51 °F    
Average Humidity 36    
Maximum Humidity 53    
Minimum Humidity 16    
Precipitation  
Precipitation 0.00 in 0.06 in 0.87 in (2014)
Month to date precipitation 0.43 1.08  
Year to date precipitation 2.77 3.24  
Snow  
Snow 0.00 in 0.00 in 0.00 in (2002)
Month to date snowfall 0.0 0.0  
Since 1 June snowfall 0.0 0.0  
Since 1 July snowfall 68.6 65.0  
Snow Depth 0.00 in    
Sea Level Pressure  
Sea Level Pressure 29.62 in    
Wind  
Wind Speed 9 mph (NNE)    
Max Wind Speed 17 mph    
Max Gust Speed -    
Visibility 10 miles    
Events      
T = Trace of Precipitation, MM = Missing Value Source: NWS Daily Summary

Daily Weather History Graph

Daily Weather History Graph

Search for Another Location

Airport or City:

Trip Planner

Search our weather history database for the weather conditions in past years. The results will help you decide how hot, cold, wet, or windy it might be!

Date:

Astronomy

Jun. 25, 2013 Rise Set
Actual Time 3:02 AM AKDT 12:44 AM AKDT
Civil Twilight Sun does not rise Sun does not rise
Nautical Twilight Sun does not rise Sun does not rise
Astronomical Twilight Sun does not rise Sun does not rise
Moon 12:06 AM AKDT (6/25) 7:50 AM AKDT (6/25)
Length of Visible Light 24h 00m
Length of Day
21h 42m
Waning Gibbous, 92% of the Moon is Illuminated
Jun 25
Waning Gibbous
Jun 29
Last Quarter
Jul 7
New
Jul 15
First Quarter
Jul 22
Full

Hourly Weather History & Observations

Time (AKDT) Temp. Heat Index Dew Point Humidity Pressure Visibility Wind Dir Wind Speed Gust Speed Precip Events Conditions
12:53 AM 73.0 °F - 48.9 °F 42% 29.61 in 10.0 mi North 9.2 mph - N/A   Scattered Clouds
1:53 AM 72.0 °F - 48.9 °F 44% 29.62 in 10.0 mi North 8.1 mph - N/A   Scattered Clouds
2:53 AM 72.0 °F - 50.0 °F 46% 29.62 in 10.0 mi North 11.5 mph - N/A   Scattered Clouds
3:53 AM 71.1 °F - 50.0 °F 47% 29.63 in 10.0 mi North 9.2 mph - N/A   Scattered Clouds
4:53 AM 70.0 °F - 50.0 °F 49% 29.63 in 10.0 mi North 9.2 mph - N/A   Scattered Clouds
5:53 AM 71.1 °F - 51.1 °F 49% 29.64 in 10.0 mi North 10.4 mph - N/A   Scattered Clouds
6:53 AM 72.0 °F - 54.0 °F 53% 29.65 in 10.0 mi NE 6.9 mph - N/A   Partly Cloudy
7:53 AM 75.0 °F - 54.0 °F 48% 29.65 in 10.0 mi Calm Calm - N/A   Partly Cloudy
8:53 AM 78.1 °F - 54.0 °F 43% 29.65 in 10.0 mi NE 3.5 mph - N/A   Partly Cloudy
9:53 AM 79.0 °F - 52.0 °F 39% 29.65 in 10.0 mi Variable 5.8 mph - N/A   Partly Cloudy
10:53 AM 82.9 °F - 52.0 °F 34% 29.64 in 10.0 mi Variable 3.5 mph - N/A   Partly Cloudy
11:53 AM 84.9 °F - 50.0 °F 30% 29.63 in 10.0 mi ENE 5.8 mph - N/A   Partly Cloudy
12:53 PM 87.1 °F - 48.9 °F 27% 29.62 in 10.0 mi Calm Calm - N/A   Partly Cloudy
1:53 PM 88.0 °F - 46.0 °F 23% 29.61 in 10.0 mi Calm Calm - N/A   Partly Cloudy
2:53 PM 91.0 °F - 48.9 °F 23% 29.60 in 10.0 mi ENE 8.1 mph - N/A   Scattered Clouds
3:53 PM 91.0 °F - 50.0 °F 24% 29.59 in 10.0 mi NE 11.5 mph - N/A   Scattered Clouds
4:53 PM 90.0 °F - 52.0 °F 27% 29.59 in 10.0 mi NE 17.3 mph - N/A   Mostly Cloudy
5:53 PM 89.1 °F 86.7 °F 53.1 °F 29% 29.58 in 10.0 mi ENE 11.5 mph - N/A   Mostly Cloudy
6:53 PM 84.9 °F 83.2 °F 53.1 °F 33% 29.59 in 10.0 mi NE 17.3 mph - N/A   Mostly Cloudy
7:53 PM 84.0 °F 82.5 °F 53.1 °F 34% 29.59 in 10.0 mi NE 12.7 mph - N/A   Mostly Cloudy
8:53 PM 82.9 °F - 51.1 °F 33% 29.60 in 10.0 mi NE 12.7 mph - N/A   Mostly Cloudy
9:53 PM 81.0 °F - 51.1 °F 35% 29.61 in 10.0 mi NNE 15.0 mph - N/A   Mostly Cloudy
10:53 PM 79.0 °F - 51.1 °F 38% 29.63 in 10.0 mi NNE 12.7 mph - N/A   Mostly Cloudy
11:53 PM 75.9 °F - 51.1 °F 42% 29.63 in 10.0 mi NNE 10.4 mph - N/A   Mostly Cloudy